KUIPER-00609

导读

KUIPER-00609(NORAD 69770)是美国亚马逊“柯伊伯计划”(现名亚马逊低轨星座/Amazon Leo)的组网通信卫星,2026年6月由阿丽亚娜6型火箭搭载发射入轨,隶属于全球低轨宽带互联网星座系统。该卫星运行于约630公里高度的近地轨道,搭载相控阵通信天线与激光星间链路,采用Ku/Ka波段提供高速低延迟(约30毫秒)宽带接入服务,单星理论最高网速400兆比特/秒,支持视频通话、高清流媒体等场景,同时具备降低光学反光、快速离轨的设计,减少对天文观测干扰与空间碎片风险,为全球欠服务区域提供互联网覆盖,也将服务航空机载连接等场景。

基本信息
目录编号:
69770
目录名称:
KUIPER-00609
国际标识:
2026-151H
轨道中心:
EARTH
卫星名称:
KUIPER-00609
卫星全名:
KUIPER-00609
卫星状态:
在轨 (已飞行12 天)
发射日期:
2026-07-02 UTC
国别 :
美国 (US)
星等 :
--
轨道信息
数据来源 国际轨道数据 AOE轨道数据
星历时间 2026-07-13T21:14:57+0800
13小时前
查看轨道信息
2026-07-14T01:00:00+0800
10小时前
查看轨道信息
半长轴 6828.354km 6828.407km
偏心率 0.000116 0.0000743
轨道倾角 51.879° 51.880°
近地点辐角 47.021° 26.093°
升交点赤经 188.221° 187.466°
平近点角 313.088° 120.210°
近地点 449.424km 449.762km
远地点 451.01km 450.778km
周期 93.591分钟 93.592分钟
每日圈数 15.386109 15.385928
详细信息
使用方式:
暂无
2D轨道图
3D轨道图
轨道高度分析图
轨道倾角分析图
轨道综合分析图
查看轨道综合分析图